sat.trackr.live / text

‹ back to catalog

STARLINK-33825

NORAD 63505 · 2025-071N

PAYLOAD ACTIVE UNKNOWN

§ Identity

Operator
Country
US
Launch date
2025-04-07
Launch site
AFWTR
Launch vehicle
Mass (kg)
RCS (m²)

Purposes: comms

External: N2YO · Heavens-Above · Gunter

§ Orbital elements

Epoch: 2026-05-24T23:29:49.775712Z

Period
94.10 min
Inclination
53.1581°
Eccentricity
0.0001487
Mean motion
15.30213924 rev/d
Perigee alt
474.2 km
Apogee alt
476.2 km
Semi-major
6,853.3 km
B*
4.5230e-4
RAAN
145.3162°
Arg perigee
68.6529°
Mean anomaly
291.4630°
Rev number
6,445

§ Raw data

STARLINK-338251 63505U 25071N   26144.97904833  .00013066  00000+0  45230-3 0  99962 63505  53.1581 145.3162 0001487  68.6529 291.4630 15.30213924 64456

JSON: /api/v1/satellites/63505 · /tle

For live sub-satellite position, see the globe view (requires WebGL).

§ Visibility from observer

Set your observer location to see the next 7 days of passes ≥ 10°. The values pass through the URL so the page stays shareable.

No JS? Fill the form by hand. The geolocation button needs JavaScript.